******** Week 150 almanac for PRN-1 ******** ID: 1 Health: 0 Eccentricity: 0.01143407822 Time of Applicability(s): 319488 Orbital Inclination(rad): 0.9868673651 Rate of Right Ascen(r/s): -7.714607058e-09 SQRT(A) (m 1/2): 5153.628418 Right Ascen at Week(rad): -2.037091658 Argument of Perigee(rad): 0.8824048468 Mean Anom(rad): -2.49939025 Af0(s): 0.0003353850708 Af1(s/s): -1.091394e-11 week: 150 ******** Week 150 almanac for PRN-2 ******** ID: 2 Health: 0 Eccentricity: 0.02063703537 Time of Applicability(s): 319488 Orbital Inclination(rad): 0.9652058786 Rate of Right Ascen(r/s): -7.920329913e-09 SQRT(A) (m 1/2): 5153.651855 Right Ascen at Week(rad): -2.126538168 Argument of Perigee(rad): -1.43920392 Mean Anom(rad): -2.358027703 Af0(s): -0.0005147595581 Af1(s/s): 0 week: 150 ******** Week 150 almanac for PRN-3 ******** ID: 3 Health: 0 Eccentricity: 0.003886699676 Time of Applicability(s): 319488 Orbital Inclination(rad): 0.97252824 Rate of Right Ascen(r/s): -7.771752296e-09 SQRT(A) (m 1/2): 5153.625977 Right Ascen at Week(rad): -1.001741886 Argument of Perigee(rad): 0.9547008071 Mean Anom(rad): 2.633814304 Af0(s): -0.0001062680786 Af1(s/s): -1.818989e-11 week: 150 ******** Week 150 almanac for PRN-4 ******** ID: 4 Health: 0 Eccentricity: 0.00171661377 Time of Applicability(s): 319488 Orbital Inclination(rad): 0.9615327137 Rate of Right Ascen(r/s): -7.863184676e-09 SQRT(A) (m 1/2): 5153.592285 Right Ascen at Week(rad): 0.07943518778 Argument of Perigee(rad): -3.051093031 Mean Anom(rad): -0.7257736487 Af0(s): -0.0001484738403 Af1(s/s): 3.637979e-12 week: 150 ******** Week 150 almanac for PRN-5 ******** ID: 5 Health: 0 Eccentricity: 0.00585603714 Time of Applicability(s): 319488 Orbital Inclination(rad): 0.9595133718 Rate of Right Ascen(r/s): -7.908900866e-09 SQRT(A) (m 1/2): 5153.620117 Right Ascen at Week(rad): -1.042261674 Argument of Perigee(rad): 1.0083407 Mean Anom(rad): 0.1561750485 Af0(s): -5.727924805e-05 Af1(s/s): 0 week: 150 ******** Week 150 almanac for PRN-6 ******** ID: 6 Health: 0 Eccentricity: 0.002690315247 Time of Applicability(s): 319488 Orbital Inclination(rad): 0.9862441854 Rate of Right Ascen(r/s): -7.726036106e-09 SQRT(A) (m 1/2): 5153.633789 Right Ascen at Week(rad): -2.045364518 Argument of Perigee(rad): -0.9458598196 Mean Anom(rad): -2.183054649 Af0(s): 0.0001665620239 Af1(s/s): 1.091394e-11 week: 150 ******** Week 150 almanac for PRN-7 ******** ID: 7 Health: 0 Eccentricity: 0.01557922363 Time of Applicability(s): 319488 Orbital Inclination(rad): 0.9508367929 Rate of Right Ascen(r/s): -7.874613723e-09 SQRT(A) (m 1/2): 5153.635254 Right Ascen at Week(rad): 1.098072584 Argument of Perigee(rad): -2.289389178 Mean Anom(rad): 3.112481475 Af0(s): 0.0002464515015 Af1(s/s): 3.637979e-12 week: 150 ******** Week 150 almanac for PRN-8 ******** ID: 8 Health: 0 Eccentricity: 0.007335186005 Time of Applicability(s): 319488 Orbital Inclination(rad): 0.964906273 Rate of Right Ascen(r/s): -8.103194673e-09 SQRT(A) (m 1/2): 5153.674805 Right Ascen at Week(rad): -3.116748608 Argument of Perigee(rad): 0.1124622136 Mean Anom(rad): -0.2458331546 Af0(s): -4.522045898e-05 Af1(s/s): 0 week: 150 ******** Week 150 almanac for PRN-9 ******** ID: 9 Health: 0 Eccentricity: 0.00223493576 Time of Applicability(s): 319488 Orbital Inclination(rad): 0.9545219421 Rate of Right Ascen(r/s): -7.943188008e-09 SQRT(A) (m 1/2): 5153.557129 Right Ascen at Week(rad): 0.02643158255 Argument of Perigee(rad): 1.874955956 Mean Anom(rad): 0.1284349384 Af0(s): -0.0002788594971 Af1(s/s): 0 week: 150 ******** Week 150 almanac for PRN-10 ******** ID: 10 Health: 0 Eccentricity: 0.007533550262 Time of Applicability(s): 319488 Orbital Inclination(rad): 0.9723604609 Rate of Right Ascen(r/s): -7.737465153e-09 SQRT(A) (m 1/2): 5153.631348 Right Ascen at Week(rad): -1.004530465 Argument of Perigee(rad): -2.5092278 Mean Anom(rad): 1.746747594 Af0(s): -0.0002600176392 Af1(s/s): -1.091394e-11 week: 150 ******** Week 150 almanac for PRN-11 ******** ID: 11 Health: 255 Eccentricity: 0.0002722740173 Time of Applicability(s): 319488 Orbital Inclination(rad): 0.9619581537 Rate of Right Ascen(r/s): -7.954617056e-09 SQRT(A) (m 1/2): 5153.728516 Right Ascen at Week(rad): -1.993511773 Argument of Perigee(rad): 2.827712697 Mean Anom(rad): -0.3432843775 Af0(s): -6.330864258e-05 Af1(s/s): 1.091394e-11 week: 150 ******** Week 150 almanac for PRN-12 ******** ID: 12 Health: 0 Eccentricity: 0.008703231811 Time of Applicability(s): 319488 Orbital Inclination(rad): 0.9700534976 Rate of Right Ascen(r/s): -7.863184676e-09 SQRT(A) (m 1/2): 5153.550293 Right Ascen at Week(rad): 2.211169266 Argument of Perigee(rad): 1.248591453 Mean Anom(rad): 2.465580879 Af0(s): -0.0001386760742 Af1(s/s): -7.275958e-12 week: 150 ******** Week 150 almanac for PRN-13 ******** ID: 13 Health: 0 Eccentricity: 0.005811214447 Time of Applicability(s): 319488 Orbital Inclination(rad): 0.9689689252 Rate of Right Ascen(r/s): -7.783181343e-09 SQRT(A) (m 1/2): 5153.618164 Right Ascen at Week(rad): 0.1793491689 Argument of Perigee(rad): 0.9551269961 Mean Anom(rad): -0.8010675378 Af0(s): 0.0002102751343 Af1(s/s): 7.275958e-12 week: 150 ******** Week 150 almanac for PRN-14 ******** ID: 14 Health: 0 Eccentricity: 0.001457691193 Time of Applicability(s): 319488 Orbital Inclination(rad): 0.953449354 Rate of Right Ascen(r/s): -8.011762293e-09 SQRT(A) (m 1/2): 5153.599609 Right Ascen at Week(rad): 2.179735768 Argument of Perigee(rad): 3.022823368 Mean Anom(rad): 2.525098659 Af0(s): -6.858436279e-05 Af1(s/s): -3.637979e-12 week: 150 ******** Week 150 almanac for PRN-15 ******** ID: 15 Health: 0 Eccentricity: 0.01393985748 Time of Applicability(s): 319488 Orbital Inclination(rad): 0.9303737289 Rate of Right Ascen(r/s): -8.206056101e-09 SQRT(A) (m 1/2): 5153.677734 Right Ascen at Week(rad): -0.0797879734 Argument of Perigee(rad): 1.077058994 Mean Anom(rad): -1.235838365 Af0(s): -6.481599121e-05 Af1(s/s): 3.637979e-12 week: 150 ******** Week 150 almanac for PRN-16 ******** ID: 16 Health: 0 Eccentricity: 0.01278162003 Time of Applicability(s): 319488 Orbital Inclination(rad): 0.9699995686 Rate of Right Ascen(r/s): -7.863184676e-09 SQRT(A) (m 1/2): 5153.562012 Right Ascen at Week(rad): 2.229784138 Argument of Perigee(rad): 0.7100061538 Mean Anom(rad): 0.610746062 Af0(s): -0.0003738224609 Af1(s/s): -3.637979e-12 week: 150 ******** Week 150 almanac for PRN-17 ******** ID: 17 Health: 0 Eccentricity: 0.01357889175 Time of Applicability(s): 319488 Orbital Inclination(rad): 0.9800363569 Rate of Right Ascen(r/s): -7.931758961e-09 SQRT(A) (m 1/2): 5153.717773 Right Ascen at Week(rad): -3.034770517 Argument of Perigee(rad): -1.496331222 Mean Anom(rad): -0.3335741593 Af0(s): 0.0004574803101 Af1(s/s): 3.637979e-12 week: 150 ******** Week 150 almanac for PRN-18 ******** ID: 18 Health: 0 Eccentricity: 0.002107143402 Time of Applicability(s): 319488 Orbital Inclination(rad): 0.9706527088 Rate of Right Ascen(r/s): -7.897471818e-09 SQRT(A) (m 1/2): 5153.574219 Right Ascen at Week(rad): -2.029397786 Argument of Perigee(rad): 3.098843427 Mean Anom(rad): -2.286615579 Af0(s): 0.0001846502075 Af1(s/s): -7.275958e-12 week: 150 ******** Week 150 almanac for PRN-19 ******** ID: 19 Health: 0 Eccentricity: 0.008993625641 Time of Applicability(s): 319488 Orbital Inclination(rad): 0.9787959897 Rate of Right Ascen(r/s): -7.943188008e-09 SQRT(A) (m 1/2): 5153.640625 Right Ascen at Week(rad): -2.989918432 Argument of Perigee(rad): 2.010096817 Mean Anom(rad): 2.082912593 Af0(s): 9.722398682e-05 Af1(s/s): 3.637979e-12 week: 150 ******** Week 150 almanac for PRN-20 ******** ID: 20 Health: 0 Eccentricity: 0.005136013031 Time of Applicability(s): 319488 Orbital Inclination(rad): 0.9416868372 Rate of Right Ascen(r/s): -8.068907531e-09 SQRT(A) (m 1/2): 5153.699707 Right Ascen at Week(rad): -1.156474333 Argument of Perigee(rad): 3.141100927 Mean Anom(rad): -1.495037675 Af0(s): 0.0004084914795 Af1(s/s): 0 week: 150 ******** Week 150 almanac for PRN-21 ******** ID: 21 Health: 0 Eccentricity: 0.02457952499 Time of Applicability(s): 319488 Orbital Inclination(rad): 0.9594594428 Rate of Right Ascen(r/s): -7.943188008e-09 SQRT(A) (m 1/2): 5153.531738 Right Ascen at Week(rad): -2.128223075 Argument of Perigee(rad): -0.9990431882 Mean Anom(rad): -0.1391492099 Af0(s): 0.0001251099365 Af1(s/s): 0 week: 150 ******** Week 150 almanac for PRN-22 ******** ID: 22 Health: 0 Eccentricity: 0.01294851303 Time of Applicability(s): 319488 Orbital Inclination(rad): 0.9616705323 Rate of Right Ascen(r/s): -7.874613723e-09 SQRT(A) (m 1/2): 5153.601562 Right Ascen at Week(rad): 0.1277353592 Argument of Perigee(rad): -1.87134421 Mean Anom(rad): -0.4496346364 Af0(s): 0.0001725914185 Af1(s/s): 7.275958e-12 week: 150 ******** Week 150 almanac for PRN-23 ******** ID: 23 Health: 0 Eccentricity: 0.001993179321 Time of Applicability(s): 319488 Orbital Inclination(rad): 0.9673989918 Rate of Right Ascen(r/s): -7.794610391e-09 SQRT(A) (m 1/2): 5153.65332 Right Ascen at Week(rad): -1.02943331 Argument of Perigee(rad): 2.979009042 Mean Anom(rad): 3.05233602 Af0(s): -7.536743164e-07 Af1(s/s): -3.637979e-12 week: 150 ******** Week 150 almanac for PRN-24 ******** ID: 24 Health: 0 Eccentricity: 0.01235675812 Time of Applicability(s): 319488 Orbital Inclination(rad): 0.9343824522 Rate of Right Ascen(r/s): -8.046049436e-09 SQRT(A) (m 1/2): 5153.63623 Right Ascen at Week(rad): 1.015170959 Argument of Perigee(rad): 0.8085089924 Mean Anom(rad): -2.203879487 Af0(s): 0.0002155508545 Af1(s/s): -3.637979e-12 week: 150 ******** Week 150 almanac for PRN-25 ******** ID: 25 Health: 0 Eccentricity: 0.01052808762 Time of Applicability(s): 319488 Orbital Inclination(rad): 0.9574580772 Rate of Right Ascen(r/s): -7.977475151e-09 SQRT(A) (m 1/2): 5153.658203 Right Ascen at Week(rad): 2.134326416 Argument of Perigee(rad): 0.9825581379 Mean Anom(rad): 2.204881293 Af0(s): 0.0002291169922 Af1(s/s): 3.637979e-12 week: 150 ******** Week 150 almanac for PRN-26 ******** ID: 26 Health: 0 Eccentricity: 0.006903648376 Time of Applicability(s): 319488 Orbital Inclination(rad): 0.9382833174 Rate of Right Ascen(r/s): -8.137481816e-09 SQRT(A) (m 1/2): 5153.651367 Right Ascen at Week(rad): 2.087160626 Argument of Perigee(rad): 0.3723109192 Mean Anom(rad): 1.551724183 Af0(s): 0.0001469664917 Af1(s/s): 3.637979e-12 week: 150 ******** Week 150 almanac for PRN-27 ******** ID: 27 Health: 0 Eccentricity: 0.01029157639 Time of Applicability(s): 319488 Orbital Inclination(rad): 0.9736128124 Rate of Right Ascen(r/s): -8.023191341e-09 SQRT(A) (m 1/2): 5153.603516 Right Ascen at Week(rad): -3.09726413 Argument of Perigee(rad): 0.642160086 Mean Anom(rad): -0.2800237738 Af0(s): 0.0001032533813 Af1(s/s): 1.455192e-11 week: 150 ******** Week 150 almanac for PRN-29 ******** ID: 29 Health: 0 Eccentricity: 0.001859664917 Time of Applicability(s): 319488 Orbital Inclination(rad): 0.9820556988 Rate of Right Ascen(r/s): -7.931758961e-09 SQRT(A) (m 1/2): 5153.702637 Right Ascen at Week(rad): -3.021745163 Argument of Perigee(rad): 2.243431548 Mean Anom(rad): -0.1443013031 Af0(s): -0.0003821128784 Af1(s/s): -3.637979e-12 week: 150 ******** Week 150 almanac for PRN-30 ******** ID: 30 Health: 0 Eccentricity: 0.005537033081 Time of Applicability(s): 319488 Orbital Inclination(rad): 0.9359943304 Rate of Right Ascen(r/s): -8.046049436e-09 SQRT(A) (m 1/2): 5153.517578 Right Ascen at Week(rad): 1.111081085 Argument of Perigee(rad): -2.740433085 Mean Anom(rad): -3.128754554 Af0(s): -0.0004069841309 Af1(s/s): -3.637979e-12 week: 150 ******** Week 150 almanac for PRN-31 ******** ID: 31 Health: 0 Eccentricity: 0.01045751572 Time of Applicability(s): 319488 Orbital Inclination(rad): 0.9550432559 Rate of Right Ascen(r/s): -7.840326581e-09 SQRT(A) (m 1/2): 5153.639648 Right Ascen at Week(rad): 1.116200971 Argument of Perigee(rad): 0.3775693724 Mean Anom(rad): 2.659566531 Af0(s): -0.0001311393311 Af1(s/s): 0 week: 150 ******** Week 150 almanac for PRN-32 ******** ID: 32 Health: 0 Eccentricity: 0.005615711212 Time of Applicability(s): 319488 Orbital Inclination(rad): 0.9583808625 Rate of Right Ascen(r/s): -7.908900866e-09 SQRT(A) (m 1/2): 5153.71875 Right Ascen at Week(rad): 0.03766641889 Argument of Perigee(rad): -2.348749666 Mean Anom(rad): 0.3561310921 Af0(s): -5.803292236e-05 Af1(s/s): -7.275958e-12 week: 150